AP679 Weather Reports


time (UTC)temp
C
wind
direction
speed
KPH
gust
KPH
rain 1hr
cm
rain 24hr
cm
rain mn
cm
humidity
%
barometer
mb
20260503030504 15 166 0.0 4.8 0.00 2.08 0.00 90 1011.1
20260503025504 15 166 0.0 4.8 0.00 2.08 0.00 90 1011.1
20260503025004 15 166 0.0 3.2 0.00 2.08 0.00 90 1011.3
20260503024505 15 166 0.0 3.2 0.00 2.08 0.00 90 1011.3
20260503024006 15 166 0.0 0.0 0.00 2.08 0.00 90 1011.2
20260503023003 15 166 0.0 1.6 0.00 2.08 0.00 90 1011.3
20260503022004 15 166 0.0 0.0 0.00 2.08 0.00 90 1011.4
20260503021503 15 166 0.0 1.6 0.00 2.08 0.00 90 1011.5
20260503021003 15 166 0.0 0.0 0.00 2.08 0.00 90 1011.7
20260503020503 15 166 0.0 0.0 0.00 2.08 0.00 90 1011.8
20260503015003 15 166 0.0 3.2 0.00 2.08 0.00 90 1012.1
20260503014504 15 166 0.0 0.0 0.00 2.08 0.00 90 1012.0
20260503013505 15 166 0.0 0.0 0.00 2.08 0.00 90 1012.1
20260503013004 15 166 0.0 4.8 0.00 2.08 0.00 90 1012.2
20260503012505 15 166 0.0 0.0 0.00 2.08 0.00 90 1012.4
20260503012005 15 166 0.0 4.8 0.00 2.08 0.00 90 1012.4
20260503011503 15 165 1.6 8.0 0.00 2.08 0.00 90 1012.4
20260503010504 15 165 1.6 4.8 0.00 2.08 0.00 90 1012.3
20260503010004 15 165 3.2 4.8 0.00 2.08 0.00 90 1012.4
20260503005504 15 165 4.8 11.3 0.00 2.08 0.00 90 1012.3
20260503005004 15 169 4.8 11.3 0.00 2.08 0.00 90 1012.3
20260503004505 15 167 4.8 9.7 0.00 2.08 0.00 90 1012.1
20260503004004 15 144 3.2 8.0 0.00 2.08 0.00 90 1012.1
20260503003505 15 142 3.2 8.0 0.00 2.08 0.00 90 1012.1
20260503003004 15 155 4.8 8.0 0.00 2.08 0.00 90 1012.1
20260503002504 15 156 4.8 9.7 0.00 2.08 0.00 90 1012.2
20260503002005 15 168 4.8 4.8 0.00 2.08 0.00 90 1012.3
20260503001504 15 168 3.2 11.3 0.00 2.08 0.00 90 1012.4
20260503001005 15 151 6.4 9.7 0.00 2.08 0.00 90 1012.4
20260503000504 15 155 8.0 14.5 0.00 2.08 0.00 90 1012.4
20260502235505 15 151 4.8 11.3 0.00 2.08 0.00 89 1012.5
20260502234505 15 160 6.4 11.3 0.00 2.08 0.00 89 1012.6
20260502234005 15 164 6.4 11.3 0.00 2.08 0.00 89 1012.7
20260502232505 15 174 3.2 9.7 0.00 2.08 0.00 89 1012.6
20260502231004 15 172 1.6 4.8 0.00 2.08 0.00 89 1012.8
20260502230505 15 158 3.2 8.0 0.00 2.08 0.00 89 1012.8
20260502230004 15 160 1.6 4.8 0.00 2.08 0.00 89 1012.8
20260502225504 15 158 3.2 9.7 0.00 2.08 0.00 89 1012.7
20260502224505 15 162 3.2 4.8 0.00 2.08 0.00 89 1012.7
20260502224003 15 137 3.2 8.0 0.00 2.08 0.00 89 1012.6
20260502223504 15 158 3.2 8.0 0.36 2.08 0.00 90 1012.6
20260502222504 15 154 3.2 4.8 0.61 2.08 0.00 90 1012.6
20260502222004 15 141 3.2 8.0 0.81 2.08 0.00 90 1012.6
20260502221504 15 188 1.6 4.8 0.86 2.08 0.00 90 1012.6
20260502221006 15 188 3.2 4.8 0.89 2.08 0.00 89 1012.5
20260502220504 15 197 1.6 4.8 0.99 2.08 0.00 89 1012.5
20260502220004 15 200 1.6 4.8 1.17 2.08 0.00 90 1012.6
20260502215506 15 113 0.0 4.8 1.17 2.08 2.08 90 1012.5
20260502215004 16 116 3.2 8.0 1.17 2.08 2.08 90 1012.6
20260502214504 16 169 4.8 12.9 1.17 2.08 2.08 90 1012.6
20260502214004 16 174 3.2 14.5 1.17 2.08 2.08 90 1012.8
20260502213004 15 290 9.7 19.3 0.74 1.65 1.65 89 1012.9
20260502212503 15 231 6.4 14.5 0.61 1.52 1.52 89 1013.2
20260502212004 15 234 3.2 12.9 0.36 1.27 1.27 89 1013.2
20260502211504 15 200 0.0 4.8 0.30 1.22 1.22 89 1013.2
20260502211003 15 87 3.2 9.7 0.28 1.19 1.19 89 1013.1
20260502210505 15 107 3.2 11.3 0.25 1.17 1.17 89 1013.4
20260502210004 15 127 3.2 8.0 0.00 0.91 0.91 89 1013.1
20260502205504 15 71 3.2 4.8 0.00 0.91 0.91 89 1013.0
20260502205008 15 47 1.6 4.8 0.03 0.91 0.91 89 1013.0
20260502204505 15 46 3.2 8.0 0.03 0.91 0.91 89 1013.1
20260502204004 15 44 0.0 4.8 0.05 0.91 0.91 89 1013.2
20260502203504 15 38 0.0 3.2 0.08 0.91 0.91 89 1013.3
20260502203004 15 38 0.0 3.2 0.15 0.91 0.91 89 1013.2
20260502202504 15 38 1.6 4.8 0.48 0.91 0.91 89 1013.3
20260502202005 15 37 0.0 4.8 0.81 0.91 0.91 89 1013.3
20260502201503 15 37 0.0 1.6 0.84 0.91 0.91 89 1013.4
20260502201004 15 37 0.0 4.8 0.84 0.91 0.91 90 1013.5
20260502200004 15 26 0.0 4.8 0.91 0.91 0.91 90 1013.5
20260502194503 15 67 3.2 8.0 0.89 0.89 0.89 91 1013.8
20260502194005 15 24 4.8 8.0 0.86 0.86 0.86 92 1014.1
20260502193004 16 25 3.2 12.9 0.76 0.76 0.76 91 1014.9
20260502192505 16 165 14.5 32.2 0.43 0.43 0.43 91 1015.2
20260502192004 17 171 11.3 32.2 0.10 0.10 0.10 90 1014.3
20260502191004 18 295 14.5 29.0 0.08 0.08 0.08 87 1013.4
20260502190004 21 246 12.9 32.2 0.00 0.00 0.00 78 1013.4
20260502185505 21 244 3.2 8.0 0.00 0.00 0.00 77 1013.3
20260502185004 21 244 1.6 4.8 0.00 0.00 0.00 76 1013.3
20260502184507 21 244 3.2 4.8 0.00 0.00 0.00 76 1013.3
20260502184004 21 244 0.0 4.8 0.00 0.00 0.00 75 1013.2
20260502183506 21 244 1.6 4.8 0.00 0.00 0.00 75 1013.4
20260502182504 22 207 3.2 9.7 0.00 0.00 0.00 73 1013.2
20260502182007 22 191 4.8 8.0 0.00 0.00 0.00 72 1013.1
20260502181504 22 186 1.6 4.8 0.00 0.00 0.00 71 1013.1
20260502181004 23 184 1.6 4.8 0.00 0.00 0.00 69 1013.1
20260502170504 24 184 1.6 4.8 0.00 0.00 0.00 61 1013.5
20260502164005 25 184 3.2 4.8 0.00 0.00 0.00 59 1013.7
20260502163504 25 184 1.6 3.2 0.00 0.00 0.00 60 1013.8
20260502163004 25 184 1.6 4.8 0.00 0.00 0.00 60 1014.0
20260502162004 25 188 0.0 4.8 0.00 0.00 0.00 58 1014.1
20260502161504 25 188 1.6 4.8 0.00 0.00 0.00 58 1014.1
20260502161005 25 188 3.2 4.8 0.00 0.00 0.00 58 1014.2
20260502160506 25 187 1.6 4.8 0.00 0.00 0.00 59 1014.4
20260502152003 25 188 3.2 11.3 0.00 0.00 0.00 58 1014.8
20260502151503 25 188 4.8 9.7 0.00 0.00 0.00 59 1014.9
20260502151005 25 150 0.0 8.0 0.00 0.00 0.00 61 1015.1
20260502150504 24 157 1.6 11.3 0.00 0.00 0.00 61 1015.2
20260502130504 23 213 1.6 8.0 0.00 0.00 0.00 66 1016.8
20260502123004 22 222 3.2 11.3 0.00 0.00 0.00 67 1017.2
20260502122504 22 211 4.8 9.7 0.00 0.00 0.00 66 1017.4
20260502121503 22 190 3.2 8.0 0.00 0.00 0.00 69 1017.5
20260502121005 22 188 4.8 11.3 0.00 0.00 0.00 71 1017.5
20260502115503 22 215 4.8 8.0 0.00 0.00 0.00 70 1017.7
20260502115003 22 211 1.6 8.0 0.00 0.00 0.00 70 1017.8
20260502114004 21 210 1.6 8.0 0.00 0.00 0.00 73 1017.9
20260502113004 21 207 3.2 11.3 0.00 0.00 0.00 75 1018.0
20260502112504 21 216 8.0 14.5 0.00 0.00 0.00 74 1018.1
20260502112006 21 259 3.2 11.3 0.00 0.00 0.00 76 1018.2
20260502111504 21 281 8.0 14.5 0.00 0.00 0.00 75 1018.2
20260502111004 21 274 3.2 12.9 0.00 0.00 0.00 75 1018.2
20260502110004 21 221 1.6 11.3 0.00 0.00 0.00 76 1018.3
20260502105504 21 223 4.8 11.3 0.00 0.00 0.00 76 1018.3
20260502105004 21 217 0.0 8.0 0.00 0.00 0.00 77 1018.4
20260502104504 21 217 3.2 11.3 0.00 0.00 0.00 76 1018.4
20260502103506 20 277 1.6 9.7 0.00 0.00 0.00 78 1018.5
20260502103004 20 278 4.8 11.3 0.00 0.00 0.00 78 1018.6
20260502102505 20 283 4.8 9.7 0.00 0.00 0.00 79 1018.6
20260502101505 20 271 3.2 8.0 0.00 0.00 0.00 79 1018.6
20260502100504 20 243 1.6 9.7 0.00 0.00 0.00 77 1018.7
20260502091504 20 243 4.8 11.3 0.00 0.00 0.00 78 1018.9
20260502090504 20 207 4.8 11.3 0.00 0.00 0.00 79 1019.0
20260502071505 16 236 3.2 8.0 0.00 0.00 0.00 86 1019.2
20260502071004 16 236 4.8 9.7 0.00 0.00 0.00 86 1019.1
20260502070503 16 236 1.6 4.8 0.00 0.00 0.00 86 1019.1
20260502065504 16 236 0.0 0.0 0.00 0.00 0.00 86 1019.0
20260502065004 16 236 0.0 3.2 0.00 0.00 0.00 86 1019.0
20260502064504 16 236 0.0 3.2 0.00 0.00 0.00 86 1019.1
20260502064005 16 236 0.0 4.8 0.00 0.00 0.00 87 1019.1
20260502063504 15 236 1.6 4.8 0.00 0.00 0.00 88 1019.1
20260502063004 15 236 1.6 4.8 0.00 0.00 0.00 88 1019.1
20260502062504 15 236 1.6 4.8 0.00 0.00 0.00 88 1019.0
20260502062003 15 236 1.6 4.8 0.00 0.00 0.00 89 1019.1
20260502061503 15 236 0.0 4.8 0.00 0.00 0.00 89 1019.1
20260502061004 15 236 0.0 4.8 0.00 0.00 0.00 89 1019.2
20260502060504 15 236 0.0 0.0 0.00 0.00 0.00 90 1019.2
20260502055504 14 236 0.0 1.6 0.00 0.00 0.00 90 1019.2
20260502055004 14 236 1.6 4.8 0.00 0.00 0.00 90 1019.2
20260502054003 14 236 3.2 4.8 0.00 0.00 0.00 90 1019.1
20260502053503 14 236 0.0 0.0 0.00 0.00 0.00 90 1019.1
20260502053003 14 236 1.6 3.2 0.00 0.00 0.00 89 1018.9
20260502052503 14 236 0.0 0.0 0.00 0.00 0.00 89 1018.8
20260502052004 13 236 0.0 0.0 0.00 0.00 0.00 89 1018.7
20260502051005 13 236 0.0 1.6 0.00 0.00 0.00 88 1018.6
20260502050504 13 236 0.0 3.2 0.00 0.00 0.00 87 1018.5
20260502045006 13 236 0.0 0.0 0.00 0.00 0.00 85 1018.7
20260502044504 14 236 0.0 3.2 0.00 0.00 0.00 85 1018.7
20260502044004 14 236 0.0 3.2 0.00 0.00 0.00 85 1018.8
20260502043004 14 236 1.6 4.8 0.00 0.00 0.00 82 1019.1
20260502042504 14 236 3.2 4.8 0.00 0.00 0.00 81 1019.1
20260502041503 15 236 3.2 9.7 0.00 0.00 0.00 78 1019.1
20260502040505 15 228 3.2 8.0 0.00 0.00 0.00 75 1019.1
20260502040006 15 227 4.8 8.0 0.00 0.00 0.00 73 1019.2
20260502035505 15 226 3.2 9.7 0.00 0.00 0.00 69 1019.4
20260502034505 15 190 1.6 9.7 0.00 0.00 0.00 67 1019.3
20260502034006 15 186 4.8 8.0 0.00 0.00 0.00 66 1019.2
20260502033003 16 180 1.6 9.7 0.00 0.00 0.00 63 1019.2